Year,Month,Day,Hour,Minute,Value (Times are PST for temperature in C)
2006,08,18,00,00,12.90
2006,08,18,00,01,12.90
2006,08,18,00,02,12.90
2006,08,18,00,03,12.90
2006,08,18,00,04,12.90
2006,08,18,00,05,12.90
2006,08,18,00,06,12.80
2006,08,18,00,07,12.80
2006,08,18,00,08,12.80
2006,08,18,00,09,12.80
2006,08,18,00,10,12.80
2006,08,18,00,11,12.80
2006,08,18,00,12,12.80
2006,08,18,00,13,12.80
2006,08,18,00,14,12.80
2006,08,18,00,15,12.80
2006,08,18,00,16,12.80
2006,08,18,00,17,12.80
2006,08,18,00,18,12.80
2006,08,18,00,19,12.80
2006,08,18,00,20,12.80
2006,08,18,00,21,12.70
2006,08,18,00,22,12.70
2006,08,18,00,23,12.70
2006,08,18,00,24,12.70
2006,08,18,00,25,12.70
2006,08,18,00,26,12.70
2006,08,18,00,27,12.70
2006,08,18,00,28,12.70
2006,08,18,00,29,12.70
2006,08,18,00,30,12.70
2006,08,18,00,31,12.70
2006,08,18,00,32,12.70
2006,08,18,00,33,12.70
2006,08,18,00,34,12.70
2006,08,18,00,35,12.70
2006,08,18,00,36,12.70
2006,08,18,00,37,12.60
2006,08,18,00,38,12.60
2006,08,18,00,39,12.60
2006,08,18,00,40,12.60
2006,08,18,00,41,12.60
2006,08,18,00,42,12.50
2006,08,18,00,43,12.50
2006,08,18,00,44,12.50
2006,08,18,00,45,12.50
2006,08,18,00,46,12.50
2006,08,18,00,47,12.50
2006,08,18,00,48,12.50
2006,08,18,00,49,12.40
2006,08,18,00,50,12.40
2006,08,18,00,51,12.40
2006,08,18,00,52,12.40
2006,08,18,00,53,12.30
2006,08,18,00,54,12.30
2006,08,18,00,55,12.30
2006,08,18,00,56,12.30
2006,08,18,00,57,12.30
2006,08,18,00,58,12.30
2006,08,18,00,59,12.30
2006,08,18,01,00,12.30
2006,08,18,01,01,12.30
2006,08,18,01,02,12.20
2006,08,18,01,03,12.20
2006,08,18,01,04,12.20
2006,08,18,01,05,12.20
2006,08,18,01,06,12.20
2006,08,18,01,07,12.10
2006,08,18,01,08,12.10
2006,08,18,01,09,12.10
2006,08,18,01,10,12.10
2006,08,18,01,11,12.10
2006,08,18,01,12,12.10
2006,08,18,01,13,12.10
2006,08,18,01,14,12.10
2006,08,18,01,15,12.10
2006,08,18,01,16,12.10
2006,08,18,01,17,12.10
2006,08,18,01,18,12.10
2006,08,18,01,19,12.10
2006,08,18,01,20,12.10
2006,08,18,01,21,12.10
2006,08,18,01,22,12.10
2006,08,18,01,23,12.10
2006,08,18,01,24,12.10
2006,08,18,01,25,12.10
2006,08,18,01,26,12.10
2006,08,18,01,27,12.10
2006,08,18,01,28,12.10
2006,08,18,01,29,12.10
2006,08,18,01,30,12.10
2006,08,18,01,31,12.10
2006,08,18,01,32,12.00
2006,08,18,01,33,12.00
2006,08,18,01,34,12.10
2006,08,18,01,35,12.10
2006,08,18,01,36,12.10
2006,08,18,01,37,12.10
2006,08,18,01,38,12.10
2006,08,18,01,39,12.10
2006,08,18,01,40,12.10
2006,08,18,01,41,12.10
2006,08,18,01,42,12.10
2006,08,18,01,43,12.10
2006,08,18,01,44,12.10
2006,08,18,01,45,12.10
2006,08,18,01,46,12.10
2006,08,18,01,47,12.10
2006,08,18,01,48,12.10
2006,08,18,01,49,12.10
2006,08,18,01,50,12.20
2006,08,18,01,51,12.20
2006,08,18,01,52,12.20
2006,08,18,01,53,12.20
2006,08,18,01,54,12.20
2006,08,18,01,55,12.20
2006,08,18,01,56,12.20
2006,08,18,01,57,12.20
2006,08,18,01,58,12.10
2006,08,18,01,59,12.10
2006,08,18,02,00,12.10
2006,08,18,02,01,12.10
2006,08,18,02,02,12.10
2006,08,18,02,03,12.10
2006,08,18,02,04,12.10
2006,08,18,02,05,12.10
2006,08,18,02,06,12.00
2006,08,18,02,07,12.00
2006,08,18,02,08,12.00
2006,08,18,02,09,12.00
2006,08,18,02,10,12.00
2006,08,18,02,11,12.00
2006,08,18,02,12,12.00
2006,08,18,02,13,11.90
2006,08,18,02,14,11.90
2006,08,18,02,15,11.90
2006,08,18,02,16,11.90
2006,08,18,02,17,11.90
2006,08,18,02,18,11.80
2006,08,18,02,19,11.80
2006,08,18,02,20,11.80
2006,08,18,02,21,11.80
2006,08,18,02,22,11.80
2006,08,18,02,23,11.80
2006,08,18,02,24,11.80
2006,08,18,02,25,11.80
2006,08,18,02,26,11.80
2006,08,18,02,27,11.70
2006,08,18,02,28,11.70
2006,08,18,02,29,11.70
2006,08,18,02,30,11.70
2006,08,18,02,31,11.70
2006,08,18,02,32,11.70
2006,08,18,02,33,11.70
2006,08,18,02,34,11.70
2006,08,18,02,35,11.70
2006,08,18,02,36,11.70
2006,08,18,02,37,11.60
2006,08,18,02,38,11.60
2006,08,18,02,39,11.60
2006,08,18,02,40,11.60
2006,08,18,02,41,11.60
2006,08,18,02,42,11.60
2006,08,18,02,43,11.60
2006,08,18,02,44,11.60
2006,08,18,02,45,11.60
2006,08,18,02,46,11.60
2006,08,18,02,47,11.60
2006,08,18,02,48,11.60
2006,08,18,02,49,11.60
2006,08,18,02,50,11.60
2006,08,18,02,51,11.60
2006,08,18,02,52,11.50
2006,08,18,02,53,11.40
2006,08,18,02,54,11.40
2006,08,18,02,55,11.40
2006,08,18,02,56,11.40
2006,08,18,02,57,11.40
2006,08,18,02,58,11.40
2006,08,18,02,59,11.40
2006,08,18,03,00,11.40
2006,08,18,03,01,11.40
2006,08,18,03,02,11.40
2006,08,18,03,03,11.40
2006,08,18,03,04,11.40
2006,08,18,03,05,11.40
2006,08,18,03,06,11.40
2006,08,18,03,07,11.40
2006,08,18,03,08,11.30
2006,08,18,03,09,11.30
2006,08,18,03,10,11.30
2006,08,18,03,11,11.20
2006,08,18,03,12,11.20
2006,08,18,03,13,11.20
2006,08,18,03,14,11.10
2006,08,18,03,15,11.10
2006,08,18,03,16,11.10
2006,08,18,03,17,11.10
2006,08,18,03,18,11.10
2006,08,18,03,19,11.10
2006,08,18,03,20,11.10
2006,08,18,03,21,11.10
2006,08,18,03,22,11.10
2006,08,18,03,23,11.10
2006,08,18,03,24,11.10
2006,08,18,03,25,11.10
2006,08,18,03,26,11.10
2006,08,18,03,27,11.10
2006,08,18,03,28,11.00
2006,08,18,03,29,10.90
2006,08,18,03,30,10.90
2006,08,18,03,31,10.90
2006,08,18,03,32,10.90
2006,08,18,03,33,10.90
2006,08,18,03,34,10.90
2006,08,18,03,35,10.90
2006,08,18,03,36,10.90
2006,08,18,03,37,10.90
2006,08,18,03,38,10.80
2006,08,18,03,39,10.80
2006,08,18,03,40,10.80
2006,08,18,03,41,10.90
2006,08,18,03,42,10.90
2006,08,18,03,43,10.90
2006,08,18,03,44,10.90
2006,08,18,03,45,10.90
2006,08,18,03,46,10.90
2006,08,18,03,47,10.90
2006,08,18,03,48,10.90
2006,08,18,03,49,10.90
2006,08,18,03,50,10.90
2006,08,18,03,51,10.90
2006,08,18,03,52,10.90
2006,08,18,03,53,10.90
2006,08,18,03,54,10.90
2006,08,18,03,55,10.90
2006,08,18,03,56,10.90
2006,08,18,03,57,10.90
2006,08,18,03,58,10.90
2006,08,18,03,59,10.90
2006,08,18,04,00,10.80
2006,08,18,04,01,10.80
2006,08,18,04,02,10.80
2006,08,18,04,03,10.80
2006,08,18,04,04,10.80
2006,08,18,04,05,10.80
2006,08,18,04,06,10.70
2006,08,18,04,07,10.70
2006,08,18,04,08,10.70
2006,08,18,04,09,10.70
2006,08,18,04,10,10.70
2006,08,18,04,11,10.70
2006,08,18,04,12,10.70
2006,08,18,04,13,10.70
2006,08,18,04,14,10.70
2006,08,18,04,15,10.60
2006,08,18,04,16,10.60
2006,08,18,04,17,10.60
2006,08,18,04,18,10.60
2006,08,18,04,19,10.60
2006,08,18,04,20,10.60
2006,08,18,04,21,10.60
2006,08,18,04,22,10.60
2006,08,18,04,23,10.60
2006,08,18,04,24,10.60
2006,08,18,04,25,10.50
2006,08,18,04,26,10.40
2006,08,18,04,27,10.40
2006,08,18,04,28,10.40
2006,08,18,04,29,10.40
2006,08,18,04,30,10.40
2006,08,18,04,31,10.40
2006,08,18,04,32,10.40
2006,08,18,04,33,10.40
2006,08,18,04,34,10.40
2006,08,18,04,35,10.40
2006,08,18,04,36,10.40
2006,08,18,04,37,10.40
2006,08,18,04,38,10.40
2006,08,18,04,39,10.40
2006,08,18,04,40,10.40
2006,08,18,04,41,10.40
2006,08,18,04,42,10.40
2006,08,18,04,43,10.40
2006,08,18,04,44,10.30
2006,08,18,04,45,10.30
2006,08,18,04,46,10.30
2006,08,18,04,47,10.30
2006,08,18,04,48,10.20
2006,08,18,04,49,10.20
2006,08,18,04,50,10.20
2006,08,18,04,51,10.20
2006,08,18,04,52,10.20
2006,08,18,04,53,10.20
2006,08,18,04,54,10.20
2006,08,18,04,55,10.20
2006,08,18,04,56,10.20
2006,08,18,04,57,10.20
2006,08,18,04,58,10.20
2006,08,18,04,59,10.10
2006,08,18,05,00,10.10
2006,08,18,05,01,10.10
2006,08,18,05,02,10.10
2006,08,18,05,03,10.10
2006,08,18,05,04,10.10
2006,08,18,05,05,10.10
2006,08,18,05,06,10.10
2006,08,18,05,07,10.10
2006,08,18,05,08,10.10
2006,08,18,05,09,10.10
2006,08,18,05,10,10.10
2006,08,18,05,11,10.10
2006,08,18,05,12,10.10
2006,08,18,05,13,10.10
2006,08,18,05,14,10.00
2006,08,18,05,15,10.00
2006,08,18,05,16,10.00
2006,08,18,05,17,10.10
2006,08,18,05,18,10.10
2006,08,18,05,19,10.10
2006,08,18,05,20,10.10
2006,08,18,05,21,10.10
2006,08,18,05,22,10.10
2006,08,18,05,23,10.10
2006,08,18,05,24,10.10
2006,08,18,05,25,10.10
2006,08,18,05,26,10.10
2006,08,18,05,27,10.10
2006,08,18,05,28,10.00
2006,08,18,05,29,9.90
2006,08,18,05,30,9.90
2006,08,18,05,31,9.90
2006,08,18,05,32,9.90
2006,08,18,05,33,9.90
2006,08,18,05,34,9.90
2006,08,18,05,35,9.90
2006,08,18,05,36,9.90
2006,08,18,05,37,9.90
2006,08,18,05,38,9.90
2006,08,18,05,39,9.90
2006,08,18,05,40,9.90
2006,08,18,05,41,9.90
2006,08,18,05,42,9.90
2006,08,18,05,43,9.90
2006,08,18,05,44,9.90
2006,08,18,05,45,9.90
2006,08,18,05,46,9.90
2006,08,18,05,47,9.90
2006,08,18,05,48,9.80
2006,08,18,05,49,9.80
2006,08,18,05,50,9.80
2006,08,18,05,51,9.80
2006,08,18,05,52,9.80
2006,08,18,05,53,9.80
2006,08,18,05,54,9.80
2006,08,18,05,55,9.80
2006,08,18,05,56,9.90
2006,08,18,05,57,9.90
2006,08,18,05,58,9.90
2006,08,18,05,59,9.90
2006,08,18,06,00,9.90
2006,08,18,06,01,9.90
2006,08,18,06,02,9.90
2006,08,18,06,03,9.90
2006,08,18,06,04,9.90
2006,08,18,06,05,9.90
2006,08,18,06,06,9.90
2006,08,18,06,07,9.90
2006,08,18,06,08,9.90
2006,08,18,06,09,9.90
2006,08,18,06,10,9.90
2006,08,18,06,11,9.90
2006,08,18,06,12,9.90
2006,08,18,06,13,9.90
2006,08,18,06,14,9.90
2006,08,18,06,15,9.90
2006,08,18,06,16,9.90
2006,08,18,06,17,9.90
2006,08,18,06,18,9.90
2006,08,18,06,19,9.90
2006,08,18,06,20,9.90
2006,08,18,06,21,9.90
2006,08,18,06,22,9.90
2006,08,18,06,23,9.90
2006,08,18,06,24,9.90
2006,08,18,06,25,9.90
2006,08,18,06,26,9.90
2006,08,18,06,27,9.90
2006,08,18,06,28,10.00
2006,08,18,06,29,10.10
2006,08,18,06,30,10.10
2006,08,18,06,31,10.10
2006,08,18,06,32,10.10
2006,08,18,06,33,10.10
2006,08,18,06,34,10.10
2006,08,18,06,35,10.10
2006,08,18,06,36,10.10
2006,08,18,06,37,10.10
2006,08,18,06,38,10.10
2006,08,18,06,39,10.10
2006,08,18,06,40,10.20
2006,08,18,06,41,10.20
2006,08,18,06,42,10.20
2006,08,18,06,43,10.20
2006,08,18,06,44,10.20
2006,08,18,06,45,10.20
2006,08,18,06,46,10.30
2006,08,18,06,47,10.30
2006,08,18,06,48,10.30
2006,08,18,06,49,10.40
2006,08,18,06,50,10.40
2006,08,18,06,51,10.40
2006,08,18,06,52,10.40
2006,08,18,06,53,10.40
2006,08,18,06,54,10.40
2006,08,18,06,55,10.60
2006,08,18,06,56,10.60
2006,08,18,06,57,10.70
2006,08,18,06,58,10.80
2006,08,18,06,59,10.90
2006,08,18,07,00,10.90
2006,08,18,07,01,11.10
2006,08,18,07,02,11.10
2006,08,18,07,03,11.20
2006,08,18,07,04,11.20
2006,08,18,07,05,11.30
2006,08,18,07,06,11.40
2006,08,18,07,07,11.40
2006,08,18,07,08,11.50
2006,08,18,07,09,11.60
2006,08,18,07,10,11.60
2006,08,18,07,11,11.60
2006,08,18,07,12,11.70
2006,08,18,07,13,11.70
2006,08,18,07,14,11.70
2006,08,18,07,15,11.70
2006,08,18,07,16,11.70
2006,08,18,07,17,11.80
2006,08,18,07,18,11.80
2006,08,18,07,19,11.80
2006,08,18,07,20,11.80
2006,08,18,07,21,11.90
2006,08,18,07,22,11.90
2006,08,18,07,23,12.00
2006,08,18,07,24,12.00
2006,08,18,07,25,12.10
2006,08,18,07,26,12.20
2006,08,18,07,27,12.20
2006,08,18,07,28,12.30
2006,08,18,07,29,12.30
2006,08,18,07,30,12.40
2006,08,18,07,31,12.40
2006,08,18,07,32,12.50
2006,08,18,07,33,12.50
2006,08,18,07,34,12.60
2006,08,18,07,35,12.60
2006,08,18,07,36,12.70
2006,08,18,07,37,12.80
2006,08,18,07,38,12.80
2006,08,18,07,39,12.90
2006,08,18,07,40,12.90
2006,08,18,07,41,13.00
2006,08,18,07,42,13.00
2006,08,18,07,43,13.10
2006,08,18,07,44,13.20
2006,08,18,07,45,13.30
2006,08,18,07,46,13.30
2006,08,18,07,47,13.40
2006,08,18,07,48,13.40
2006,08,18,07,49,13.50
2006,08,18,07,50,13.50
2006,08,18,07,51,13.50
2006,08,18,07,52,13.60
2006,08,18,07,53,13.70
2006,08,18,07,54,13.80
2006,08,18,07,55,13.90
2006,08,18,07,56,13.90
2006,08,18,07,57,14.00
2006,08,18,07,58,14.10
2006,08,18,07,59,14.20
2006,08,18,08,00,14.30
2006,08,18,08,01,14.40
2006,08,18,08,02,14.50
2006,08,18,08,03,14.50
2006,08,18,08,04,14.60
2006,08,18,08,05,14.70
2006,08,18,08,06,14.70
2006,08,18,08,07,14.80
2006,08,18,08,08,14.80
2006,08,18,08,09,14.90
2006,08,18,08,10,15.00
2006,08,18,08,11,15.00
2006,08,18,08,12,15.10
2006,08,18,08,13,15.20
2006,08,18,08,14,15.20
2006,08,18,08,15,15.30
2006,08,18,08,16,15.30
2006,08,18,08,17,15.30
2006,08,18,08,18,15.50
2006,08,18,08,19,15.50
2006,08,18,08,20,15.60
2006,08,18,08,21,15.70
2006,08,18,08,22,15.80
2006,08,18,08,23,15.80
2006,08,18,08,24,15.90
2006,08,18,08,25,16.00
2006,08,18,08,26,16.10
2006,08,18,08,27,16.10
2006,08,18,08,28,16.20
2006,08,18,08,29,16.30
2006,08,18,08,30,16.30
2006,08,18,08,31,16.40
2006,08,18,08,32,16.40
2006,08,18,08,33,16.50
2006,08,18,08,34,16.60
2006,08,18,08,35,16.70
2006,08,18,08,36,16.70
2006,08,18,08,37,16.70
2006,08,18,08,38,16.80
2006,08,18,08,39,16.80
2006,08,18,08,40,16.80
2006,08,18,08,41,16.90
2006,08,18,08,42,16.90
2006,08,18,08,43,17.00
2006,08,18,08,44,17.00
2006,08,18,08,45,17.00
2006,08,18,08,46,17.00
2006,08,18,08,47,17.00
2006,08,18,08,48,17.10
2006,08,18,08,49,17.10
2006,08,18,08,50,17.20
2006,08,18,08,51,17.20
2006,08,18,08,52,17.20
2006,08,18,08,53,17.20
2006,08,18,08,54,17.20
2006,08,18,08,55,17.20
2006,08,18,08,56,17.30
2006,08,18,08,57,17.20
2006,08,18,08,58,17.20
2006,08,18,08,59,17.20
2006,08,18,09,00,17.20
2006,08,18,09,01,17.10
2006,08,18,09,02,17.10
2006,08,18,09,03,17.10
2006,08,18,09,04,17.00
2006,08,18,09,05,17.00
2006,08,18,09,06,17.00
2006,08,18,09,07,16.90
2006,08,18,09,08,16.90
2006,08,18,09,09,16.90
2006,08,18,09,10,16.90
2006,08,18,09,11,17.00
2006,08,18,09,12,17.00
2006,08,18,09,13,17.00
2006,08,18,09,14,17.00
2006,08,18,09,15,17.00
2006,08,18,09,16,17.00
2006,08,18,09,17,17.10
2006,08,18,09,18,17.10
2006,08,18,09,19,17.10
2006,08,18,09,20,17.20
2006,08,18,09,21,17.20
2006,08,18,09,22,17.20
2006,08,18,09,23,17.30
2006,08,18,09,24,17.30
2006,08,18,09,25,17.40
2006,08,18,09,26,17.40
2006,08,18,09,27,17.50
2006,08,18,09,28,17.60
2006,08,18,09,29,17.70
2006,08,18,09,30,17.80
2006,08,18,09,31,17.90
2006,08,18,09,32,17.90
2006,08,18,09,33,17.90
2006,08,18,09,34,18.00
2006,08,18,09,35,18.10
2006,08,18,09,36,18.10
2006,08,18,09,37,18.10
2006,08,18,09,38,18.10
2006,08,18,09,39,18.10
2006,08,18,09,40,18.20
2006,08,18,09,41,18.10
2006,08,18,09,42,18.10
2006,08,18,09,43,18.10
2006,08,18,09,44,18.10
2006,08,18,09,45,18.10
2006,08,18,09,46,18.10
2006,08,18,09,47,18.00
2006,08,18,09,48,17.90
2006,08,18,09,49,17.90
2006,08,18,09,50,18.00
2006,08,18,09,51,18.10
2006,08,18,09,52,18.20
2006,08,18,09,53,18.20
2006,08,18,09,54,18.20
2006,08,18,09,55,18.30
2006,08,18,09,56,18.40
2006,08,18,09,57,18.40
2006,08,18,09,58,18.40
2006,08,18,09,59,18.50
2006,08,18,10,00,18.50
2006,08,18,10,01,18.60
2006,08,18,10,02,18.60
2006,08,18,10,03,18.70
2006,08,18,10,04,18.70
2006,08,18,10,05,18.80
2006,08,18,10,06,18.80
2006,08,18,10,07,18.80
2006,08,18,10,08,18.80
2006,08,18,10,09,18.80
2006,08,18,10,10,18.90
2006,08,18,10,11,18.90
2006,08,18,10,12,18.90
2006,08,18,10,13,18.90
2006,08,18,10,14,18.90
2006,08,18,10,15,18.90
2006,08,18,10,16,18.90
2006,08,18,10,17,18.90
2006,08,18,10,18,18.90
2006,08,18,10,19,18.90
2006,08,18,10,20,18.90
2006,08,18,10,21,18.90
2006,08,18,10,22,18.90
2006,08,18,10,23,18.90
2006,08,18,10,24,18.90
2006,08,18,10,25,18.90
2006,08,18,10,26,18.90
2006,08,18,10,27,18.90
2006,08,18,10,28,18.90
2006,08,18,10,29,18.90
2006,08,18,10,30,18.90
2006,08,18,10,31,18.90
2006,08,18,10,32,18.90
2006,08,18,10,33,18.90
2006,08,18,10,34,18.90
2006,08,18,10,35,18.90
2006,08,18,10,36,18.90
2006,08,18,10,37,19.00
2006,08,18,10,38,19.10
2006,08,18,10,39,19.10
2006,08,18,10,40,19.10
2006,08,18,10,41,19.10
2006,08,18,10,42,19.10
2006,08,18,10,43,19.20
2006,08,18,10,44,19.20
2006,08,18,10,45,19.20
2006,08,18,10,46,19.10
2006,08,18,10,47,19.10
2006,08,18,10,48,19.10
2006,08,18,10,49,19.10
2006,08,18,10,50,19.10
2006,08,18,10,51,19.10
2006,08,18,10,52,19.10
2006,08,18,10,53,19.10
2006,08,18,10,54,19.10
2006,08,18,10,55,19.10
2006,08,18,10,56,19.20
2006,08,18,10,57,19.20
2006,08,18,10,58,19.20
2006,08,18,10,59,19.20
2006,08,18,11,00,19.20
2006,08,18,11,01,19.20
2006,08,18,11,02,19.20
2006,08,18,11,03,19.30
2006,08,18,11,04,19.30
2006,08,18,11,05,19.30
2006,08,18,11,06,19.40
2006,08,18,11,07,19.40
2006,08,18,11,08,19.40
2006,08,18,11,09,19.50
2006,08,18,11,10,19.50
2006,08,18,11,11,19.60
2006,08,18,11,12,19.70
2006,08,18,11,13,19.70
2006,08,18,11,14,19.90
2006,08,18,11,15,19.90
2006,08,18,11,16,19.90
2006,08,18,11,17,19.90
2006,08,18,11,18,19.90
2006,08,18,11,19,19.90
2006,08,18,11,20,19.90
2006,08,18,11,21,19.90
2006,08,18,11,22,19.90
2006,08,18,11,23,20.00
2006,08,18,11,24,20.10
2006,08,18,11,25,20.20
2006,08,18,11,26,20.30
2006,08,18,11,27,20.30
2006,08,18,11,28,20.30
2006,08,18,11,29,20.30
2006,08,18,11,30,20.30
2006,08,18,11,31,20.30
2006,08,18,11,32,20.40
2006,08,18,11,33,20.50
2006,08,18,11,34,20.50
2006,08,18,11,35,20.50
2006,08,18,11,36,20.60
2006,08,18,11,37,20.60
2006,08,18,11,38,20.60
2006,08,18,11,39,20.70
2006,08,18,11,40,20.70
2006,08,18,11,41,20.80
2006,08,18,11,42,20.80
2006,08,18,11,43,20.80
2006,08,18,11,44,20.80
2006,08,18,11,45,20.80
2006,08,18,11,46,20.70
2006,08,18,11,47,20.70
2006,08,18,11,48,20.80
2006,08,18,11,49,20.80
2006,08,18,11,50,20.80
2006,08,18,11,51,20.80
2006,08,18,11,52,20.80
2006,08,18,11,53,20.90
2006,08,18,11,54,20.90
2006,08,18,11,55,20.90
2006,08,18,11,56,20.90
2006,08,18,11,57,20.90
2006,08,18,11,58,21.00
2006,08,18,11,59,21.00
2006,08,18,12,00,21.00
2006,08,18,12,01,21.10
2006,08,18,12,02,21.20
2006,08,18,12,03,21.20
2006,08,18,12,04,21.30
2006,08,18,12,05,21.30
2006,08,18,12,06,21.30
2006,08,18,12,07,21.30
2006,08,18,12,08,21.30
2006,08,18,12,09,21.30
2006,08,18,12,10,21.40
2006,08,18,12,11,21.40
2006,08,18,12,12,21.40
2006,08,18,12,13,21.40
2006,08,18,12,14,21.50
2006,08,18,12,15,21.60
2006,08,18,12,16,21.60
2006,08,18,12,17,21.60
2006,08,18,12,18,21.60
2006,08,18,12,19,21.60
2006,08,18,12,20,21.60
2006,08,18,12,21,21.60
2006,08,18,12,22,21.60
2006,08,18,12,23,21.60
2006,08,18,12,24,21.60
2006,08,18,12,25,21.50
2006,08,18,12,26,21.40
2006,08,18,12,27,21.30
2006,08,18,12,28,21.30
2006,08,18,12,29,21.20
2006,08,18,12,30,21.20
2006,08,18,12,31,21.10
2006,08,18,12,32,21.10
2006,08,18,12,33,21.20
2006,08,18,12,34,21.20
2006,08,18,12,35,21.30
2006,08,18,12,36,21.30
2006,08,18,12,37,21.30
2006,08,18,12,38,21.50
2006,08,18,12,39,21.60
2006,08,18,12,40,21.60
2006,08,18,12,41,21.60
2006,08,18,12,42,21.60
2006,08,18,12,43,21.60
2006,08,18,12,44,21.60
2006,08,18,12,45,21.60
2006,08,18,12,46,21.60
2006,08,18,12,47,21.60
2006,08,18,12,48,21.60
2006,08,18,12,49,21.70
2006,08,18,12,50,21.70
2006,08,18,12,51,21.80
2006,08,18,12,52,21.80
2006,08,18,12,53,21.80
2006,08,18,12,54,21.80
2006,08,18,12,55,21.90
2006,08,18,12,56,22.00
2006,08,18,12,57,22.00
2006,08,18,12,58,22.10
2006,08,18,12,59,22.20
2006,08,18,13,00,22.20
2006,08,18,13,01,22.30
2006,08,18,13,02,22.30
2006,08,18,13,03,22.40
2006,08,18,13,04,22.40
2006,08,18,13,05,22.40
2006,08,18,13,06,22.50
2006,08,18,13,07,22.40
2006,08,18,13,08,22.40
2006,08,18,13,09,22.30
2006,08,18,13,10,22.20
2006,08,18,13,11,22.10
2006,08,18,13,12,22.10
2006,08,18,13,13,22.10
2006,08,18,13,14,22.10
2006,08,18,13,15,22.20
2006,08,18,13,16,22.20
2006,08,18,13,17,22.20
2006,08,18,13,18,22.30
2006,08,18,13,19,22.30
2006,08,18,13,20,22.30
2006,08,18,13,21,22.40
2006,08,18,13,22,22.40
2006,08,18,13,23,22.40
2006,08,18,13,24,22.50
2006,08,18,13,25,22.50
2006,08,18,13,26,22.60
2006,08,18,13,27,22.60
2006,08,18,13,28,22.70
2006,08,18,13,29,22.70
2006,08,18,13,30,22.70
2006,08,18,13,31,22.80
2006,08,18,13,32,22.80
2006,08,18,13,33,22.80
2006,08,18,13,34,22.80
2006,08,18,13,35,22.80
2006,08,18,13,36,22.70
2006,08,18,13,37,22.70
2006,08,18,13,38,22.60
2006,08,18,13,39,22.60
2006,08,18,13,40,22.60
2006,08,18,13,41,22.60
2006,08,18,13,42,22.50
2006,08,18,13,43,22.50
2006,08,18,13,44,22.50
2006,08,18,13,45,22.50
2006,08,18,13,46,22.40
2006,08,18,13,47,22.40
2006,08,18,13,48,22.40
2006,08,18,13,49,22.50
2006,08,18,13,50,22.60
2006,08,18,13,51,22.60
2006,08,18,13,52,22.60
2006,08,18,13,53,22.70
2006,08,18,13,54,22.70
2006,08,18,13,55,22.80
2006,08,18,13,56,22.90
2006,08,18,13,57,22.90
2006,08,18,13,58,22.90
2006,08,18,13,59,22.90
2006,08,18,14,00,22.80
2006,08,18,14,01,22.80
2006,08,18,14,02,22.80
2006,08,18,14,03,22.80
2006,08,18,14,04,22.90
2006,08,18,14,05,22.90
2006,08,18,14,06,22.90
2006,08,18,14,07,22.80
2006,08,18,14,08,22.80
2006,08,18,14,09,22.80
2006,08,18,14,10,22.80
2006,08,18,14,11,22.80
2006,08,18,14,12,22.80
2006,08,18,14,13,22.80
2006,08,18,14,14,22.90
2006,08,18,14,15,22.90
2006,08,18,14,16,23.00
2006,08,18,14,17,23.20
2006,08,18,14,18,23.20
2006,08,18,14,19,23.20
2006,08,18,14,20,23.20
2006,08,18,14,21,23.20
2006,08,18,14,22,23.20
2006,08,18,14,23,23.20
2006,08,18,14,24,23.20
2006,08,18,14,25,23.20
2006,08,18,14,26,23.20
2006,08,18,14,27,23.30
2006,08,18,14,28,23.30
2006,08,18,14,29,23.30
2006,08,18,14,30,23.30
2006,08,18,14,31,23.20
2006,08,18,14,32,23.20
2006,08,18,14,33,23.30
2006,08,18,14,34,23.30
2006,08,18,14,35,23.30
2006,08,18,14,36,23.30
2006,08,18,14,37,23.40
2006,08,18,14,38,23.40
2006,08,18,14,39,23.50
2006,08,18,14,40,23.60
2006,08,18,14,41,23.60
2006,08,18,14,42,23.60
2006,08,18,14,43,23.60
2006,08,18,14,44,23.50
2006,08,18,14,45,23.30
2006,08,18,14,46,23.30
2006,08,18,14,47,23.30
2006,08,18,14,48,23.30
2006,08,18,14,49,23.30
2006,08,18,14,50,23.30
2006,08,18,14,51,23.30
2006,08,18,14,52,23.30
2006,08,18,14,53,23.30
2006,08,18,14,54,23.30
2006,08,18,14,55,23.30
2006,08,18,14,56,23.40
2006,08,18,14,57,23.40
2006,08,18,14,58,23.40
2006,08,18,14,59,23.40
2006,08,18,15,00,23.40
2006,08,18,15,01,23.40
2006,08,18,15,02,23.30
2006,08,18,15,03,23.40
2006,08,18,15,04,23.40
2006,08,18,15,05,23.40
2006,08,18,15,06,23.40
2006,08,18,15,07,23.40
2006,08,18,15,08,23.40
2006,08,18,15,09,23.50
2006,08,18,15,10,23.60
2006,08,18,15,11,23.70
2006,08,18,15,12,23.80
2006,08,18,15,13,23.90
2006,08,18,15,14,23.90
2006,08,18,15,15,23.90
2006,08,18,15,16,23.90
2006,08,18,15,17,23.90
2006,08,18,15,18,23.90
2006,08,18,15,19,23.90
2006,08,18,15,20,23.90
2006,08,18,15,21,23.80
2006,08,18,15,22,23.80
2006,08,18,15,23,23.80
2006,08,18,15,24,23.80
2006,08,18,15,25,23.90
2006,08,18,15,26,24.00
2006,08,18,15,27,24.10
2006,08,18,15,28,24.10
2006,08,18,15,29,24.20
2006,08,18,15,30,24.20
2006,08,18,15,31,24.20
2006,08,18,15,32,24.10
2006,08,18,15,33,24.10
2006,08,18,15,34,24.00
2006,08,18,15,35,23.90
2006,08,18,15,36,23.90
2006,08,18,15,37,23.80
2006,08,18,15,38,23.80
2006,08,18,15,39,23.70
2006,08,18,15,40,23.70
2006,08,18,15,41,23.70
2006,08,18,15,42,23.70
2006,08,18,15,43,23.70
2006,08,18,15,44,23.70
2006,08,18,15,45,23.70
2006,08,18,15,46,23.70
2006,08,18,15,47,23.70
2006,08,18,15,48,23.70
2006,08,18,15,49,23.70
2006,08,18,15,50,23.80
2006,08,18,15,51,23.80
2006,08,18,15,52,23.90
2006,08,18,15,53,23.90
2006,08,18,15,54,23.90
2006,08,18,15,55,23.90
2006,08,18,15,56,23.90
2006,08,18,15,57,23.90
2006,08,18,15,58,23.90
2006,08,18,15,59,23.90
2006,08,18,16,00,23.90
2006,08,18,16,01,23.90
2006,08,18,16,02,24.00
2006,08,18,16,03,24.10
2006,08,18,16,04,24.10
2006,08,18,16,05,24.20
2006,08,18,16,06,24.30
2006,08,18,16,07,24.30
2006,08,18,16,08,24.30
2006,08,18,16,09,24.20
2006,08,18,16,10,24.20
2006,08,18,16,11,24.20
2006,08,18,16,12,24.20
2006,08,18,16,13,24.20
2006,08,18,16,14,24.30
2006,08,18,16,15,24.30
2006,08,18,16,16,24.40
2006,08,18,16,17,24.40
2006,08,18,16,18,24.50
2006,08,18,16,19,24.50
2006,08,18,16,20,24.60
2006,08,18,16,21,24.60
2006,08,18,16,22,24.60
2006,08,18,16,23,24.60
2006,08,18,16,24,24.60
2006,08,18,16,25,24.50
2006,08,18,16,26,24.50
2006,08,18,16,27,24.50
2006,08,18,16,28,24.40
2006,08,18,16,29,24.40
2006,08,18,16,30,24.50
2006,08,18,16,31,24.50
2006,08,18,16,32,24.50
2006,08,18,16,33,24.40
2006,08,18,16,34,24.40
2006,08,18,16,35,24.40
2006,08,18,16,36,24.30
2006,08,18,16,37,24.20
2006,08,18,16,38,24.20
2006,08,18,16,39,24.30
2006,08,18,16,40,24.30
2006,08,18,16,41,24.40
2006,08,18,16,42,24.40
2006,08,18,16,43,24.40
2006,08,18,16,44,24.50
2006,08,18,16,45,24.50
2006,08,18,16,46,24.50
2006,08,18,16,47,24.60
2006,08,18,16,48,24.60
2006,08,18,16,49,24.60
2006,08,18,16,50,24.50
2006,08,18,16,51,24.40
2006,08,18,16,52,24.40
2006,08,18,16,53,24.40
2006,08,18,16,54,24.50
2006,08,18,16,55,24.50
2006,08,18,16,56,24.50
2006,08,18,16,57,24.40
2006,08,18,16,58,24.30
2006,08,18,16,59,24.30
2006,08,18,17,00,24.30
2006,08,18,17,01,24.20
2006,08,18,17,02,24.20
2006,08,18,17,03,24.10
2006,08,18,17,04,24.20
2006,08,18,17,05,24.20
2006,08,18,17,06,24.20
2006,08,18,17,07,24.20
2006,08,18,17,08,24.30
2006,08,18,17,09,24.40
2006,08,18,17,10,24.40
2006,08,18,17,11,24.40
2006,08,18,17,12,24.40
2006,08,18,17,13,24.30
2006,08,18,17,14,24.20
2006,08,18,17,15,24.10
2006,08,18,17,16,24.10
2006,08,18,17,17,24.10
2006,08,18,17,18,24.10
2006,08,18,17,19,24.10
2006,08,18,17,20,24.10
2006,08,18,17,21,24.10
2006,08,18,17,22,24.10